IRIDIUM 147 (43480 NORAD) Tracking and Keplerian Element Data

This shows tracking and keplerian element data for the satellite.

Feedback or suggestion? Click here.




ElementValue
Catalog43480
NameIRIDIUM 147
Epoch Orbit22757
Epoch Day269.31975317
Epoch Year2022
RAAN296.61
Inclination86.3923
Eccentricity0.0002054
Argument of Perigee96.4293
Mean Anonmoly263.7136
Mean Motion14.34218136
Decay Rate1.83E-06
L11 43480U 18047E 22269.31975317 .00000183 00000+0 58179-4 0 9991
L22 43480 86.3923 296.6100 0002054 96.4293 263.7136 14.34218136227574

Live tracking and technical data element details for IRIDIUM 147 (NORAD 43480). IRIDIUM 147 can be tracked NOW for your location showing map with azimuth and elevation plus other details from your city location.

Track the satellite on the map from your city or location and see movement details for azimuth, elevation, latitude, longitude, range, height, and movement on the map or in text.







IsCatalogInMostPopularTable: catalog: 43480, numindb: 591
Update: records affected: 1



GetName: 43480 IRIDIUM 147

Hit Count: updated at: Wed, 05 Oct 2022 08:16:04 GMT